User: anonymous   Login
Location: Endfield
(51.6667°N, 0.0667°W)
Time: 11:01:04
(UTC+00:00)
Language:

Cosmos 2056 Rocket - Orbit

View from above orbital plane
View from above orbital plane
View from above satellite
View from above satellite

Ground track
Ground track

The orbit data is extracted from the following two-line orbital elements,

1 20433U 90004B   24203.68975315  .00000635  00000-0  22166-3 0  9994
2 20433  74.0364 277.0620 0039521 135.1178 343.8103 14.36835469806968
Epoch (UTC): 21 July 2024 16:33:14
Eccentricity: 0.0039521
inclination: 74.0364°
perigee height: 741 km
apogee height: 797 km
right ascension of ascending node: 277.0620°
argument of perigee: 135.1178°
revolutions per day: 14.36835469
mean anomaly at epoch: 343.8103°
orbit number at epoch: 80696

The dashed part of the orbit path shows where the satellite is in the earth's shadow,  

DLR